[[{"header":{"parameterUnit":"m.s-1","parameterCategory":1,"la1":30.2991,"la2":30.254,"lo1":-89.0895,"lo2":-89.0444,"dy":0.0017,"dx":0.0017,"nx":28,"ny":28,"refTime":"2024-03-19T03:00:00:Z","depth":0,"parameterNumber":2,"parameterNumberName":"U-component_of_WINDS"},"data":[0,0,0,0,0,0,0,0,0,0,0,0,0,0,0,0,0,0,0,0,0,0,0,0,0,0,0,0,0,0,0,0,0,0,0,0,0,0,0,0,0,0,0,0,0,0,0,0,0,0,0,0,0,0,0,0,0,0,1.82,1.8201,0,1.8288,1.8289,1.829,1.8317,1.8316,1.8316,1.8315,1.8407,1.841,1.8413,0,0,0,0,0,0,0,0,0,0,0,0,0,1.8057,1.8059,1.82,1.8201,1.8202,1.8288,1.8289,1.8291,1.8317,1.8316,1.8316,1.8315,1.8406,1.841,1.8413,0,0,0,0,0,0,0,0,0,0,0,0,0,1.813,1.806,1.82,1.8226,1.8229,1.8288,1.8289,1.8291,1.8317,1.8316,1.8316,1.8315,1.8405,1.8409,1.8413,1.8454,0,0,1.8427,1.8428,0,0,0,0,0,0,0,0,1.8125,1.8135,1.8221,1.8224,1.8228,1.8291,1.8273,1.8346,1.8317,1.8284,1.8315,1.8315,1.8369,1.8376,1.8394,1.8458,1.8462,1.8427,1.843,1.8431,1.8433,0,0,0,0,0,0,0,1.812,1.8131,1.8235,1.8222,1.8226,1.8234,1.8243,1.8287,1.8329,1.8286,1.8289,1.8299,1.8371,1.839,1.8397,1.8463,1.8427,1.8431,1.8433,1.8435,1.8566,1.8567,0,0,0,0,0,0,1.8111,1.8127,1.8232,1.8238,1.8174,1.8237,1.8248,1.8271,1.8329,1.8337,1.8299,1.8299,1.8383,1.8392,1.84,1.8452,1.8431,1.8435,1.8438,1.8565,1.8566,1.8567,0,0,0,0,0,0,1.8107,1.812,1.8229,1.8183,1.8197,1.824,1.8267,1.8273,1.8293,1.8338,1.8346,1.8311,1.8383,1.8394,1.844,1.8455,1.8437,1.8441,1.8564,1.8565,1.8567,1.8555,0,0,0,0,0,0,1.8103,1.8118,1.8133,1.8183,1.82,1.8267,1.8267,1.8276,1.83,1.8301,1.8351,1.8359,1.8383,1.8434,1.8445,1.8461,1.8445,1.8563,1.8565,1.8566,1.8554,1.8555,1.8557,0,0,0,0,0,1.8098,1.8126,1.8134,1.8147,1.8219,1.8267,1.8277,1.8304,1.8301,1.8317,1.8346,1.8357,1.8452,1.8438,1.8451,1.8468,1.8562,1.8564,1.8566,1.8553,1.8555,1.8557,0,0,0,0,0,0,1.8077,1.8133,1.8142,1.8187,1.8223,1.8272,1.8292,1.8305,1.8342,1.8342,1.8374,1.8385,1.8429,1.8454,1.8438,1.8511,1.8508,1.8512,1.8493,1.8496,1.8497,1.849,1.8448,0,0,0,0,0,1.8078,1.8112,1.8159,1.8195,1.8212,1.8249,1.8271,1.8289,1.8327,1.8342,1.8375,1.8412,1.845,1.8474,1.8512,1.8558,1.857,1.8576,1.8578,1.8579,1.8582,1.861,1.8613,1.8574,1.8574,1.8574,0,0,1.808,1.8115,1.8134,1.8192,1.8221,1.8256,1.8261,1.8298,1.8325,1.8348,1.8393,1.8419,1.8463,1.8509,1.8531,1.8531,1.8596,1.8581,1.8582,1.8585,1.8612,1.8616,1.8619,1.8575,1.8575,1.8575,0,0,1.8101,1.8131,1.8164,1.8193,1.8237,1.8262,1.827,1.8318,1.8336,1.8383,1.8401,1.8434,1.8498,1.8529,1.8553,1.8588,1.86,1.8599,1.8606,1.8633,1.8636,1.8639,1.8652,1.8656,1.8603,1.8603,1.8603,0,1.8098,1.8151,1.8179,1.8215,1.8241,1.8263,1.8298,1.8325,1.8379,1.8397,1.8395,1.8478,1.8509,1.8564,1.8572,1.8591,1.8602,1.8593,1.8633,1.8636,1.8639,1.8652,1.8657,1.8602,1.8602,1.8602,1.8602,0,1.8145,1.8182,1.8203,1.8255,1.8283,1.8318,1.8353,1.8378,1.8394,1.8419,1.8467,1.8505,1.8552,1.8566,1.8582,1.8624,1.8622,1.8626,1.8623,1.8642,1.8655,1.866,1.8602,1.8602,1.8602,1.8602,0,0,1.8154,1.8223,1.823,1.8254,1.8306,1.8335,1.8372,1.8417,1.8438,1.8476,1.8508,1.8563,1.8568,1.8595,1.8615,1.8639,1.8665,1.8641,1.8642,1.8644,1.8714,1.871,1.8715,1.8673,1.8674,1.8675,1.8711,0,1.8182,1.8248,1.8275,1.8329,1.8364,1.8387,1.8419,1.8455,1.848,1.8514,1.8543,1.8581,1.8585,1.8601,1.8625,1.8656,1.8679,1.8654,1.8704,1.8706,1.8692,1.8722,1.8717,1.8749,1.8716,1.8717,1.8717,0,1.8223,1.826,1.8317,1.8366,1.8381,1.841,1.8454,1.8486,1.8528,1.8545,1.8576,1.8595,1.8636,1.8631,1.8688,1.8671,1.8693,1.8712,1.8714,1.8719,1.8712,1.8728,1.8759,1.8764,1.8725,1.8724,1.8724,0,1.8224,1.8289,1.8332,1.8352,1.8409,1.8429,1.8454,1.8495,1.8521,1.856,1.8577,1.8621,1.8645,1.8679,1.871,1.8703,1.8765,1.8762,1.878,1.878,1.8792,1.879,1.8827,1.8806,1.8806,1.8806,1.8806,0,1.8252,1.8286,1.8333,1.836,1.8399,1.8431,1.8469,1.8496,1.8533,1.8566,1.8589,1.8619,1.8658,1.8694,1.8719,1.8763,1.8774,1.8789,1.8795,1.8787,1.8785,1.8801,1.88,1.8808,1.8807,1.8807,1.8807,0,1.826,1.8293,1.8341,1.8392,1.8405,1.8432,1.8476,1.8503,1.853,1.8571,1.8583,1.8626,1.8669,1.8704,1.876,1.8777,1.8824,1.8831,1.881,1.8813,1.883,1.8828,1.8878,1.8887,1.886,1.886,1.8861,0,1.8275,1.8302,1.8356,1.8379,1.8404,1.8441,1.8468,1.8501,1.8528,1.8578,1.86,1.8645,1.8683,1.8751,1.8788,1.8832,1.884,1.8855,1.8847,1.8838,1.8841,1.8839,1.8842,1.8856,1.8856,1.8856,1.8856,0,1.8299,1.8314,1.8351,1.8395,1.8426,1.8461,1.8498,1.8516,1.8556,1.8586,1.863,1.866,1.8718,1.8763,1.8811,1.8838,1.8854,1.8858,1.8865,1.8857,1.8843,1.8851,1.8812,1.8857,1.8857,1.8857,1.8857,1.8857,1.8311,1.8336,1.8378,1.8419,1.845,1.8484,1.8512,1.8543,1.8581,1.863,1.8649,1.8695,1.8738,1.8804,1.8832,1.8869,1.887,1.888,1.8882,1.8884,1.8883,1.8838,1.8878,1.8878,1.8878,1.8878,1.8878,0,1.8336,1.8365,1.8402,1.8453,1.8485,1.8497,1.8539,1.8565,1.8605,1.8644,1.8681,1.8733,1.8777,1.8818,1.8864,1.8887,1.8895,1.8898,1.8896,1.8902,1.8879,1.8869,1.889,1.889,1.889,1.889,1.889,1.889,1.8353,1.8397,1.8417,1.8477,1.8506,1.8551,1.8573,1.8605,1.8636,1.8693,1.873,1.8756,1.8796,1.8846,1.8888,1.8899,1.8915,1.8915,1.8928,1.8906,1.8904,1.8902,1.8893,1.8919,1.8919,1.8948,1.8949,1.8949]},{"header":{"parameterUnit":"m.s-1","parameterCategory":1,"la1":30.2991,"la2":30.254,"lo1":-89.0895,"lo2":-89.0444,"dy":0.0017,"dx":0.0017,"nx":28,"ny":28,"refTime":"2024-03-19T03:00:00:Z","depth":0,"parameterNumber":3,"parameterNumberName":"V-component_of_WINDS"},"data":[0,0,0,0,0,0,0,0,0,0,0,0,0,0,0,0,0,0,0,0,0,0,0,0,0,0,0,0,0,0,0,0,0,0,0,0,0,0,0,0,0,0,0,0,0,0,0,0,0,0,0,0,0,0,0,0,0,0,-9.6836,-9.6838,0,-9.7033,-9.7035,-9.7037,-9.6956,-9.6951,-9.6947,-9.6942,-9.7139,-9.7148,-9.7157,0,0,0,0,0,0,0,0,0,0,0,0,0,-9.6386,-9.6395,-9.6836,-9.6838,-9.6841,-9.7032,-9.7035,-9.7038,-9.6957,-9.6951,-9.6945,-9.694,-9.7135,-9.7147,-9.7158,0,0,0,0,0,0,0,0,0,0,0,0,0,-9.6582,-9.6398,-9.6835,-9.6824,-9.6825,-9.7032,-9.7035,-9.7038,-9.6958,-9.6951,-9.6944,-9.6937,-9.7132,-9.7146,-9.716,-9.7389,0,0,-9.7204,-9.721,0,0,0,0,0,0,0,0,-9.6571,-9.6599,-9.6823,-9.6825,-9.6826,-9.6963,-9.6948,-9.7156,-9.696,-9.6907,-9.6942,-9.6934,-9.7085,-9.7103,-9.7155,-9.7398,-9.7406,-9.7205,-9.7214,-9.722,-9.7224,0,0,0,0,0,0,0,-9.6558,-9.659,-9.6913,-9.6826,-9.6828,-9.6807,-9.6827,-9.6987,-9.7033,-9.6911,-9.6906,-9.693,-9.7085,-9.7142,-9.7159,-9.7409,-9.7205,-9.7217,-9.7226,-9.7232,-9.7851,-9.7858,0,0,0,0,0,0,-9.6544,-9.6579,-9.6907,-9.6919,-9.6679,-9.6821,-9.6844,-9.6926,-9.7031,-9.704,-9.6936,-9.6926,-9.712,-9.7143,-9.7166,-9.7442,-9.722,-9.7233,-9.7241,-9.7843,-9.7853,-9.7861,0,0,0,0,0,0,-9.6535,-9.6574,-9.6899,-9.6748,-9.6788,-9.6836,-9.6929,-9.6933,-9.699,-9.705,-9.7057,-9.6986,-9.7116,-9.7146,-9.7335,-9.7448,-9.724,-9.7253,-9.7834,-9.7846,-9.7857,-9.7996,0,0,0,0,0,0,-9.6523,-9.6572,-9.666,-9.6751,-9.6796,-9.7067,-9.6936,-9.6942,-9.7016,-9.7004,-9.7099,-9.7108,-9.7113,-9.7314,-9.7349,-9.7464,-9.7264,-9.7824,-9.7839,-9.7853,-9.7981,-9.8011,-9.8036,0,0,0,0,0,-9.6507,-9.669,-9.6665,-9.6705,-9.6908,-9.7073,-9.7099,-9.7103,-9.7025,-9.7114,-9.7153,-9.7105,-9.743,-9.7334,-9.7373,-9.7494,-9.7817,-9.7835,-9.7852,-9.7969,-9.8005,-9.8035,0,0,0,0,0,0,-9.6609,-9.6701,-9.6675,-9.6893,-9.6976,-9.7059,-9.7171,-9.714,-9.7246,-9.723,-9.7228,-9.7251,-9.7446,-9.7488,-9.738,-9.7721,-9.7611,-9.7638,-9.7687,-9.7722,-9.7748,-9.7734,-9.7276,0,0,0,0,0,-9.6657,-9.6785,-9.6858,-9.7044,-9.7087,-9.7123,-9.7195,-9.719,-9.7276,-9.731,-9.7362,-9.7446,-9.7566,-9.7646,-9.776,-9.7987,-9.8006,-9.8089,-9.8116,-9.8139,-9.8161,-9.8285,-9.8323,-9.7919,-9.7919,-9.7918,0,0,-9.6758,-9.6824,-9.6904,-9.7066,-9.713,-9.7262,-9.7152,-9.7296,-9.7394,-9.7331,-9.7514,-9.7555,-9.7648,-9.7857,-9.7952,-9.7898,-9.8278,-9.8161,-9.8178,-9.8189,-9.8307,-9.8346,-9.838,-9.7931,-9.7929,-9.7927,0,0,-9.7008,-9.7071,-9.7233,-9.7301,-9.74,-9.7422,-9.7461,-9.755,-9.7576,-9.776,-9.7716,-9.7831,-9.8039,-9.8108,-9.817,-9.8448,-9.8408,-9.8485,-9.8629,-9.8749,-9.8781,-9.8809,-9.891,-9.8946,-9.8508,-9.8508,-9.8508,0,-9.712,-9.7319,-9.732,-9.7469,-9.7541,-9.7493,-9.7657,-9.7721,-9.7852,-9.7903,-9.7841,-9.8103,-9.8162,-9.8387,-9.8455,-9.8507,-9.8551,-9.8475,-9.8777,-9.8805,-9.8831,-9.8927,-9.8965,-9.8517,-9.8516,-9.8515,-9.8514,0,-9.7452,-9.759,-9.7709,-9.7839,-9.7925,-9.808,-9.8105,-9.8191,-9.818,-9.8208,-9.8396,-9.8466,-9.8594,-9.8647,-9.8636,-9.8871,-9.8835,-9.8776,-9.8665,-9.8879,-9.8969,-9.9005,-9.853,-9.8526,-9.8524,-9.8522,0,0,-9.7772,-9.7903,-9.7946,-9.8006,-9.8112,-9.8219,-9.8371,-9.8499,-9.8574,-9.8665,-9.8794,-9.8972,-9.8918,-9.8989,-9.8985,-9.9091,-9.9309,-9.9019,-9.9021,-9.9071,-9.9574,-9.9619,-9.9661,-9.9283,-9.929,-9.9295,-9.9566,0,-9.8032,-9.8302,-9.8309,-9.8556,-9.8685,-9.8641,-9.8774,-9.8854,-9.8885,-9.8997,-9.903,-9.9157,-9.9076,-9.9119,-9.9222,-9.9261,-9.941,-9.9241,-9.9402,-9.9407,-9.9381,-9.9708,-9.9756,-10.0008,-9.9601,-9.9607,-9.9611,0,-9.8371,-9.8476,-9.8738,-9.8827,-9.8881,-9.9001,-9.912,-9.9228,-9.9316,-9.9332,-9.9412,-9.9393,-9.9548,-9.9433,-9.9647,-9.9532,-9.9598,-9.9627,-9.9637,-9.9652,-9.9523,-9.9733,-10.0088,-10.0126,-9.9666,-9.9662,-9.9658,0,-9.858,-9.8787,-9.897,-9.9022,-9.9131,-9.9217,-9.9266,-9.9348,-9.9425,-9.9527,-9.9577,-9.9696,-9.9761,-9.9853,-9.9866,-9.9781,-10.0082,-9.9967,-10.0098,-10.0098,-10.0164,-10.016,-10.0536,-10.0205,-10.0205,-10.0204,-10.0203,0,-9.887,-9.9031,-9.9066,-9.9179,-9.9359,-9.9364,-9.9542,-9.9584,-9.9658,-9.9777,-9.9746,-9.9858,-9.9869,-9.9984,-9.9995,-10.0172,-10.0201,-10.0217,-10.0218,-10.0221,-10.0219,-10.0264,-10.0247,-10.0214,-10.0212,-10.021,-10.0208,0,-9.9134,-9.9163,-9.9361,-9.9449,-9.9474,-9.9603,-9.9678,-9.9785,-9.9814,-9.9966,-10.0001,-10.0046,-10.018,-10.0203,-10.036,-10.0368,-10.0579,-10.0561,-10.055,-10.0548,-10.0679,-10.0667,-10.1097,-10.1155,-10.0786,-10.079,-10.0792,0,-9.9317,-9.9441,-9.9543,-9.9622,-9.9676,-9.9803,-9.9882,-9.9893,-9.9976,-10.0088,-10.0182,-10.0314,-10.042,-10.0637,-10.0682,-10.0803,-10.0789,-10.0931,-10.0806,-10.0806,-10.0792,-10.0785,-10.0798,-10.0955,-10.0959,-10.0963,-10.0965,0,-9.964,-9.9649,-9.9765,-9.9888,-9.9984,-10.008,-10.0171,-10.0237,-10.0259,-10.0354,-10.0493,-10.0575,-10.0738,-10.0869,-10.099,-10.1038,-10.1006,-10.1005,-10.1042,-10.1046,-10.1035,-10.1044,-10.0617,-10.0995,-10.0992,-10.099,-10.0988,-10.0987,-9.987,-9.9979,-10.0069,-10.02,-10.0269,-10.0356,-10.0462,-10.0505,-10.0621,-10.0756,-10.0754,-10.0907,-10.0992,-10.1151,-10.1208,-10.1326,-10.128,-10.1333,-10.1347,-10.136,-10.1374,-10.1015,-10.1348,-10.1347,-10.1346,-10.1346,-10.1345,0,-10.0193,-10.0249,-10.0369,-10.0499,-10.0602,-10.0565,-10.0664,-10.0752,-10.0887,-10.0971,-10.1077,-10.1237,-10.1365,-10.1421,-10.1546,-10.163,-10.1619,-10.1663,-10.1657,-10.1669,-10.1407,-10.1363,-10.167,-10.167,-10.167,-10.167,-10.167,-10.167,-10.0373,-10.0556,-10.0576,-10.0792,-10.0846,-10.0998,-10.1057,-10.1137,-10.1204,-10.1385,-10.1492,-10.1528,-10.1601,-10.1732,-10.1847,-10.186,-10.1908,-10.1959,-10.1966,-10.172,-10.1687,-10.1656,-10.1615,-10.1969,-10.197,-10.2218,-10.222,-10.2222]}]]